Location: Erskine
(52.3216°N, 112.8806°W)
Time: 14:30:54
(UTC+00:00)

Envisat - Pass Details

Date: 07 June 2023
Orbit: 763 x 764 km, 98.2° (Epoch: 20 September)

Event Time Altitude Azimuth Distance (km) Brightness Sun altitude
Rises 09:56:28 0° 28° (NNE) 3,242 8.6 -8.4°
Reaches altitude 10° 09:59:57 10° 53° (NE) 2,310 6.9 -8.2°
Maximum altitude 10:02:37 14° 85° (E) 2,026 5.8 -7.9°
Drops below altitude 10° 10:05:17 10° 117° (ESE) 2,301 5.6 -7.7°
Sets 10:08:44 0° 142° (SE) 3,221 6.1 -7.4°
